User: anonymous   Login
Location: Voyageurs National Park
(48.5020°N, 92.9292°W)
Time: 06:09:22
(UTC-05:00)
Language:

Terra - Orbit

View from above orbital plane
View from above orbital plane
View from above satellite
View from above satellite

Ground track
Ground track

The orbit data is extracted from the following two-line orbital elements,

1 25994U 99068A   16205.20971957  .00000166  00000-0  46919-4 0  9991
2 25994  98.2085 279.0004 0001029  55.4159 304.7153 14.57118545882761
Epoch (UTC): 23 July 2016 05:01:59
Eccentricity: 0.0001029
inclination: 98.2085°
perigee height: 702 km
apogee height: 703 km
right ascension of ascending node: 279.0004°
argument of perigee: 55.4159°
revolutions per day: 14.57118545
mean anomaly at epoch: 304.7153°
orbit number at epoch: 88276

The dashed part of the orbit path shows where the satellite is in the earth's shadow,  

DLR